User: anonymous   Login
Location: Unspecified
(0.0000°N, 0.0000°E)
Time: 00:49:17
(UTC+00:00)
Language:

Tansei-3 - Orbit

View from above orbital plane
View from above orbital plane
View from above satellite
View from above satellite

Ground track
Ground track

The orbit data is extracted from the following two-line orbital elements,

1 09841U 77012A   24201.35189441  .00000019  00000-0  15724-3 0  9995
2 09841  65.7593 153.8974 1720167  96.1668 283.7020 10.73874914858777
Epoch (UTC): 19 July 2024 08:26:43
Eccentricity: 0.1720167
inclination: 65.7593°
perigee height: 807 km
apogee height: 3793 km
right ascension of ascending node: 153.8974°
argument of perigee: 96.1668°
revolutions per day: 10.73874914
mean anomaly at epoch: 283.7020°
orbit number at epoch: 85877

The dashed part of the orbit path shows where the satellite is in the earth's shadow,  

DLR